Location: Canyam�s
(41.5996°N, 2.4450°E)
Time: 04:18:07
(UTC+00:00)

N. Korean satellite - Pass Details

Date: 19 August 2020
Orbit: 455 x 503 km, 97.2° (Epoch: 22 September)

Event Time Altitude Azimuth Distance (km) Brightness Sun altitude
Rises 04:14:33 0° 37° (NE) 2,559 11.5 -9.3°
Reaches altitude 10° 04:18:23 10° 79° (E) 1,684 10.8 -8.6°
Maximum altitude 04:19:05 10° 91° (E) 1,658 10.4 -8.5°
Drops below altitude 10° 04:19:47 10° 102° (ESE) 1,686 10.2 -8.4°
Sets 04:23:37 0° 144° (SE) 2,572 10.4 -7.7°
